Location: Grust
(42.8833°N, 0.0333°W)
Time: 18:52:33
(UTC+00:00)

GEOS 3 Rocket - Pass Details

Date: 25 October 2020
Orbit: 770 x 850 km, 115.0° (Epoch: 22 November)

Event Time Altitude Azimuth Distance (km) Brightness Sun altitude
Exits shadow 18:12:44 17° 105° (ESE) 1,964 5.0 -13.6°
Maximum altitude 18:16:21 41° 44° (NE) 1,202 4.2 -14.3°
Drops below altitude 10° 18:21:22 10° 335° (NNW) 2,475 6.4 -15.2°
Sets 18:23:49 0° 329° (NNW) 3,418 7.3 -15.7°
